GW5306 Weather Reports


Display with metric or nautical units.
time (UTC)temp
F
wind
direction
speed
MPH
gust
MPH
rain 1hr
in
rain 24hr
in
rain mn
in
humidity
%
barometer
mb
20260504222946 80 142 1.0 1.0 0.00 0.00 0.00 76 1009.0
20260504222446 80 142 0.0 0.0 0.00 0.00 0.00 76 1009.0
20260504221946 80 142 1.0 1.0 0.00 0.00 0.00 75 1009.0
20260504221446 81 142 1.0 1.0 0.00 0.00 0.00 73 1009.0
20260504220946 81 142 1.0 1.0 0.00 0.00 0.00 72 1009.0
20260504220447 81 142 0.0 0.0 0.00 0.00 0.00 72 1009.0
20260504215946 81 142 0.0 0.0 0.00 0.00 0.00 72 1009.0
20260504215446 81 142 0.0 0.0 0.00 0.00 0.00 72 1009.0
20260504214946 81 142 1.0 1.0 0.00 0.00 0.00 72 1009.0
20260504214447 81 142 0.0 0.0 0.00 0.00 0.00 72 1009.0
20260504213947 81 142 1.0 1.0 0.00 0.00 0.00 72 1009.0
20260504213447 81 142 1.0 1.0 0.00 0.00 0.00 72 1009.0
20260504212946 81 142 0.0 0.0 0.00 0.00 0.00 72 1009.0
20260504212446 81 142 0.0 1.0 0.00 0.00 0.00 72 1009.0
20260504211946 81 142 0.0 0.0 0.00 0.00 0.00 72 1009.0
20260504211446 81 142 0.0 0.0 0.00 0.00 0.00 71 1009.0
20260504210946 81 142 0.0 0.0 0.00 0.00 0.00 72 1009.0
20260504210446 80 142 0.0 0.0 0.00 0.00 0.00 73 1009.0
20260504205947 80 142 0.0 0.0 0.00 0.00 0.00 75 1009.0
20260504205447 80 142 0.0 0.0 0.00 0.00 0.00 74 1009.0
20260504204947 81 142 0.0 0.0 0.00 0.00 0.00 74 1009.0
20260504204447 81 142 0.0 0.0 0.00 0.00 0.00 72 1009.0
20260504203947 81 142 0.0 0.0 0.00 0.00 0.00 72 1009.0
20260504203446 81 142 0.0 0.0 0.00 0.00 0.00 72 1009.0
20260504202948 81 142 0.0 0.0 0.00 0.00 0.00 72 1009.0
20260504202446 81 142 0.0 0.0 0.00 0.00 0.00 72 1009.0
20260504201954 81 142 0.0 1.0 0.00 0.00 0.00 72 1009.0
20260504201446 81 142 0.0 0.0 0.00 0.00 0.00 72 1009.0
20260504200946 81 142 0.0 0.0 0.00 0.00 0.00 71 1009.0
20260504200446 82 142 0.0 0.0 0.00 0.00 0.00 71 1010.0
20260504195946 82 142 0.0 0.0 0.00 0.00 0.00 71 1010.0
20260504195449 81 142 1.0 1.0 0.00 0.00 0.00 69 1009.0
20260504194946 81 141 0.0 0.0 0.00 0.00 0.00 70 1009.0
20260504194447 82 141 0.0 0.0 0.00 0.00 0.00 70 1009.0
20260504193946 81 141 0.0 1.0 0.00 0.00 0.00 70 1009.0
20260504193447 81 141 0.0 0.0 0.00 0.00 0.00 70 1009.0
20260504192946 81 142 1.0 1.0 0.00 0.00 0.00 70 1009.0
20260504192447 81 142 0.0 0.0 0.00 0.00 0.00 70 1010.0
20260504191946 81 142 1.0 2.0 0.00 0.00 0.00 71 1010.0
20260504191446 82 141 1.0 2.0 0.00 0.00 0.00 70 1010.0
20260504190952 82 122 1.0 1.0 0.00 0.00 0.00 70 1010.0
20260504190447 82 62 1.0 2.0 0.00 0.00 0.00 69 1010.0
20260504185946 82 61 1.0 1.0 0.00 0.00 0.00 69 1010.0
20260504185446 82 57 1.0 1.0 0.00 0.00 0.00 69 1010.0
20260504184946 82 160 0.0 0.0 0.00 0.00 0.00 68 1010.0
20260504184448 82 160 0.0 0.0 0.00 0.00 0.00 68 1010.0
20260504183947 82 160 0.0 1.0 0.00 0.00 0.00 69 1010.0
20260504183446 82 160 0.0 1.0 0.00 0.00 0.00 69 1010.0
20260504182950 82 160 0.0 1.0 0.00 0.00 0.00 69 1010.0
20260504182446 82 168 1.0 1.0 0.00 0.00 0.00 69 1010.0
20260504181947 82 183 3.0 3.0 0.00 0.00 0.00 69 1010.0
20260504181446 82 186 3.0 3.0 0.00 0.00 0.00 69 1010.0
20260504180947 82 179 2.0 2.0 0.00 0.00 0.00 69 1010.0
20260504180446 82 181 2.0 3.0 0.00 0.00 0.00 69 1010.0
20260504175947 82 192 0.0 0.0 0.00 0.00 0.00 68 1010.0
20260504175446 82 167 1.0 1.0 0.00 0.00 0.00 69 1010.0
20260504174948 82 182 4.0 4.0 0.00 0.00 0.00 69 1010.0
20260504174446 83 221 1.0 2.0 0.00 0.00 0.00 68 1010.0
20260504173947 83 210 0.0 1.0 0.00 0.00 0.00 68 1010.0
20260504173446 82 203 1.0 1.0 0.00 0.00 0.00 68 1011.0
20260504172948 83 167 3.0 3.0 0.00 0.00 0.00 68 1011.0
20260504172446 83 167 3.0 3.0 0.00 0.00 0.00 68 1010.0
20260504171952 83 187 3.0 3.0 0.00 0.00 0.00 67 1010.0
20260504171447 83 179 2.0 3.0 0.00 0.00 0.00 67 1010.0
20260504170947 83 196 1.0 2.0 0.00 0.00 0.00 67 1010.0
20260504170447 83 202 2.0 3.0 0.00 0.00 0.00 67 1010.0
20260504160447 84 183 1.0 2.0 0.00 0.00 0.00 67 1010.0
20260504150949 83 32 2.0 2.0 0.00 0.00 0.00 69 1010.0
20260504150446 83 139 0.0 1.0 0.00 0.00 0.00 70 1010.0
20260504140946 85 124 3.0 3.0 0.00 0.00 0.00 62 1008.0
20260504140447 86 118 4.0 4.0 0.00 0.00 0.00 60 1008.0
20260504130446 85 282 2.0 2.0 0.00 0.00 0.00 60 1007.0
20260504110446 88 332 4.0 4.0 0.00 0.00 0.00 57 1006.0
20260504100447 87 259 2.0 2.0 0.00 0.00 0.00 51 1006.0
20260504081947 98 21 0.0 0.0 0.00 0.00 0.00 49 1006.0
20260504081446 97 129 6.0 7.0 0.00 0.00 0.00 50 1006.0
20260504080946 99 167 5.0 6.0 0.00 0.00 0.00 49 1007.0
20260504080448 97 241 2.0 3.0 0.00 0.00 0.00 49 1007.0
20260504050448 93 183 0.0 1.0 0.00 0.00 0.00 57 1010.0
20260504045946 93 202 1.0 1.0 0.00 0.00 0.00 57 1010.0
20260504045447 93 169 1.0 1.0 0.00 0.00 0.00 58 1010.0
20260504044948 91 168 2.0 3.0 0.00 0.00 0.00 60 1010.0
20260504044446 90 158 6.0 8.0 0.00 0.00 0.00 61 1010.0
20260504043947 92 184 4.0 6.0 0.00 0.00 0.00 59 1010.0
20260504043446 90 176 7.0 9.0 0.00 0.00 0.00 61 1010.0
20260504042947 90 134 3.0 4.0 0.00 0.00 0.00 62 1010.0
20260504042446 89 185 4.0 7.0 0.00 0.00 0.00 62 1010.0
20260504041946 90 200 3.0 6.0 0.00 0.00 0.00 62 1010.0
20260504041446 91 111 5.0 7.0 0.00 0.00 0.00 61 1010.0
20260504040946 91 175 3.0 3.0 0.00 0.00 0.00 58 1010.0
20260504040446 91 179 1.0 1.0 0.00 0.00 0.00 59 1010.0
20260504035946 90 101 0.0 0.0 0.00 0.00 0.00 60 1010.0
20260504035446 90 204 1.0 1.0 0.00 0.00 0.00 61 1010.0
20260504034947 90 143 4.0 4.0 0.00 0.00 0.00 60 1010.0
20260504034446 89 138 2.0 3.0 0.00 0.00 0.00 62 1010.0
20260504033947 90 184 0.0 1.0 0.00 0.00 0.00 61 1010.0
20260504033447 89 235 2.0 3.0 0.00 0.00 0.00 62 1011.0
20260504032946 88 246 1.0 1.0 0.00 0.00 0.00 62 1010.0
20260504032446 88 164 1.0 1.0 0.00 0.00 0.00 64 1010.0
20260504031950 88 183 1.0 2.0 0.00 0.00 0.00 63 1010.0
20260504031446 87 138 2.0 2.0 0.00 0.00 0.00 65 1010.0
20260504030946 86 249 2.0 2.0 0.00 0.00 0.00 66 1010.0
20260504030447 85 245 2.0 3.0 0.00 0.00 0.00 68 1010.0
20260504025946 87 159 2.0 3.0 0.00 0.00 0.00 66 1010.0
20260504025446 85 205 3.0 3.0 0.00 0.00 0.00 67 1010.0
20260504024947 84 178 2.0 3.0 0.00 0.00 0.00 69 1010.0
20260504024447 84 131 4.0 4.0 0.00 0.00 0.00 71 1010.0
20260504023946 84 140 0.0 1.0 0.00 0.00 0.00 71 1010.0
20260504023447 83 125 2.0 2.0 0.00 0.00 0.00 72 1010.0
20260504022946 83 181 0.0 0.0 0.00 0.00 0.00 71 1010.0
20260504022446 82 180 2.0 3.0 0.00 0.00 0.00 73 1010.0
20260504021946 82 155 0.0 1.0 0.00 0.00 0.00 73 1010.0
20260504021446 82 157 3.0 4.0 0.00 0.00 0.00 74 1010.0
20260504020947 81 159 2.0 2.0 0.00 0.00 0.00 75 1010.0
20260504020446 81 148 4.0 6.0 0.00 0.00 0.00 76 1010.0
20260504015947 81 125 4.0 7.0 0.00 0.00 0.00 76 1010.0
20260504015446 81 147 2.0 3.0 0.00 0.00 0.00 75 1009.0
20260504014946 80 167 4.0 4.0 0.00 0.00 0.00 76 1009.0
20260504014446 80 140 2.0 2.0 0.00 0.00 0.00 77 1009.0
20260504013946 80 121 0.0 0.0 0.00 0.00 0.00 76 1009.0
20260504013446 80 136 3.0 3.0 0.00 0.00 0.00 77 1009.0
20260504012946 80 128 3.0 3.0 0.00 0.00 0.00 76 1009.0
20260504012446 80 97 1.0 2.0 0.00 0.00 0.00 76 1009.0
20260504011947 80 97 2.0 3.0 0.00 0.00 0.00 77 1009.0
20260504011446 80 90 2.0 3.0 0.00 0.00 0.00 77 1009.0
20260504010946 79 79 1.0 1.0 0.00 0.00 0.00 78 1009.0
20260504010447 79 34 1.0 1.0 0.00 0.00 0.00 78 1009.0
20260504005947 79 79 0.0 1.0 0.00 0.00 0.00 78 1009.0
20260504005446 79 81 0.0 0.0 0.00 0.00 0.00 78 1009.0
20260504004946 79 65 0.0 0.0 0.00 0.00 0.00 79 1009.0
20260504004446 78 93 0.0 1.0 0.00 0.00 0.00 79 1009.0
20260504003946 78 56 5.0 8.0 0.00 0.00 0.00 80 1009.0
20260504003452 78 72 1.0 1.0 0.00 0.00 0.00 81 1008.0
20260504002946 78 42 2.0 3.0 0.00 0.00 0.00 81 1009.0
20260504002447 78 31 2.0 3.0 0.00 0.00 0.00 81 1008.0
20260504001946 78 47 1.0 1.0 0.00 0.00 0.00 81 1008.0
20260504001446 78 37 1.0 1.0 0.00 0.00 0.00 81 1008.0
20260504000946 78 17 2.0 3.0 0.00 0.00 0.00 81 1008.0
20260504000446 78 17 1.0 1.0 0.00 0.00 0.00 80 1008.0
20260503235946 79 72 2.0 2.0 0.00 0.00 0.00 78 1008.0
20260503235446 79 86 0.0 1.0 0.00 0.00 0.00 78 1008.0
20260503234946 79 107 2.0 3.0 0.00 0.00 0.00 78 1008.0
20260503234446 80 126 2.0 2.0 0.00 0.00 0.00 76 1008.0
20260503233946 80 143 1.0 1.0 0.00 0.00 0.00 75 1008.0
20260503233446 80 148 1.0 1.0 0.00 0.00 0.00 75 1008.0
20260503232947 80 148 2.0 2.0 0.00 0.00 0.00 75 1008.0
20260503232446 80 232 1.0 2.0 0.00 0.00 0.00 75 1008.0
20260503231946 80 233 0.0 0.0 0.00 0.00 0.00 75 1008.0
20260503231446 81 232 0.0 0.0 0.00 0.00 0.00 74 1008.0
20260503230946 81 232 0.0 0.0 0.00 0.00 0.00 74 1008.0
20260503230446 81 233 1.0 1.0 0.00 0.00 0.00 73 1008.0
20260503225946 81 233 0.0 1.0 0.00 0.00 0.00 73 1008.0
20260503225446 81 224 1.0 2.0 0.00 0.00 0.00 73 1008.0
20260503224946 81 240 0.0 1.0 0.00 0.00 0.00 74 1007.0
20260503224446 81 229 2.0 2.0 0.00 0.00 0.00 74 1007.0
20260503223946 81 235 1.0 2.0 0.00 0.00 0.00 74 1007.0
20260503223446 80 235 1.0 1.0 0.00 0.00 0.00 75 1007.0